Regional Weather Roundup
Issued by NWS

Home | Current Version | Previous Version | Graphics & Text | Print | Product List | Glossary On
Versions: 1 2 3 4 5 6 7 8 9 10 11 12 13 14 15 16 17 18 19 20 21 22 23 24 25 26 27 28 29 30 31 32 33 34 35 36 37 38 39 40 41 42 43 44 45 46 47 48 49 50
000
ASUS43 KFSD 251702
RWRSD

WEATHER ROUNDUP FOR SOUTH DAKOTA
NATIONAL WEATHER SERVICE SIOUX FALLS SD
1200 PM CDT TUE APR 25 2017

NOTE: "FAIR" INDICATES FEW OR NO CLOUDS BELOW 12,000 FEET WITH NO
SIGNIFICANT WEATHER AND/OR OBSTRUCTIONS TO VISIBILITY.


SDZ001>005-009-010-012>017-251800-
NORTHWEST AND NORTH CENTRAL SOUTH DAKOTA

CITY           SKY/WX    TMP DP  RH WIND       PRES   REMARKS
BUFFALO          N/A     28  26  92 NE18      29.75R WCI  15
FAITH            N/A     28  28 100 NE23      29.77R WCI  14
MOBRIDGE       CLOUDY    33  27  78 N16       29.77F WCI  23
$$

SDZ012>016-024>037-041>051-057-063-072>074-251800-
SOUTHWEST AND SOUTH CENTRAL SOUTH DAKOTA

CITY           SKY/WX    TMP DP  RH WIND       PRES   REMARKS
RAPID CTY ARPT SNOW      30  28  92 N16       29.75R VSB 1/2 WCI  19
PIERRE         CLOUDY    35  29  78 N17       29.73S WCI  25
CUSTER         SNOW      25  21  85 NE10      29.62R VSB 1/2 WCI  15
ELLSWORTH AFB  LGT SNOW  30  30 100 N15       29.75  FOG     WCI  19
PHILIP         SNOW      32  31  96 NE17      29.74R VSB 1/2 WCI  21
PINE RIDGE     LGT SNOW  34  32  92 NE15      29.68R FOG     WCI  24
SPEARFISH      LGT SNOW  27  27 100 NE13      29.76R WCI  16
WINNER         CLOUDY    37  33  85 N15       29.68F
$$

SDZ004>011-016>023-039-040-251800-
NORTHEAST SOUTH DAKOTA

CITY           SKY/WX    TMP DP  RH WIND       PRES   REMARKS
ABERDEEN       CLOUDY    34  28  79 N21       29.75S WCI  22
WATERTOWN      CLOUDY    35  33  92 N17       29.66R WCI  25
BROOKINGS      CLOUDY    37  35  92 N17       29.63F
SISSETON         N/A     35  33  92 N23G29    29.70S WCI  23
$$

SDZ017-020-022-023-036>040-048>070-251800-
SOUTHEAST SOUTH DAKOTA

CITY           SKY/WX    TMP DP  RH WIND       PRES   REMARKS
SIOUX FALLS    CLOUDY    42  38  85 N17       29.60F
HURON          CLOUDY    37  33  85 N17       29.69F
CHAMBERLAIN    CLOUDY    38  33  82 N14       29.69F
MITCHELL       CLOUDY    40  35  83 N22       29.66F
YANKTON        CLOUDY    39  36  87 NW16G24   29.61R
$$

ABBREVIATIONS USED IN REMARKS
   TC - TEMPERATURE IN CELSIUS
  WCI - WIND CHILL INDEX
   HX - HEAT INDEX
  VSB - VISIBILITY





USA.gov is the U.S. government's official web portal to all federal, state and local government web resources and services.